| time (UTC) | temp F | wind direction | speed MPH | gust MPH | rain 1hr in | rain 24hr in | rain mn in | humidity % | barometer mb |
| 20260506091116 | 54 | 0.0 | 0.0 | 0.00 | 0.00 | 0.00 | 88 | 1019.4 | |
| 20260506090117 | 54 | 0.0 | 0.0 | 0.00 | 0.00 | 0.00 | 88 | 1019.5 | |
| 20260506085116 | 54 | 0.0 | 0.0 | 0.00 | 0.00 | 0.00 | 87 | 1019.4 | |
| 20260506084117 | 54 | 0.0 | 0.0 | 0.00 | 0.00 | 0.00 | 87 | 1019.5 | |
| 20260506083116 | 54 | 0.0 | 0.0 | 0.00 | 0.00 | 0.00 | 87 | 1019.5 | |
| 20260506082116 | 54 | 0.0 | 0.0 | 0.00 | 0.02 | 0.00 | 87 | 1019.6 | |
| 20260506081136 | 54 | 0.0 | 0.0 | 0.00 | 0.02 | 0.00 | 87 | 1019.5 | |
| 20260506080116 | 54 | 0.0 | 0.0 | 0.00 | 0.02 | 0.00 | 87 | 1019.3 | |
| 20260506073119 | 55 | 0.0 | 0.0 | 0.00 | 0.02 | 0.00 | 86 | 1019.1 | |
| 20260506072116 | 55 | 0.0 | 0.0 | 0.00 | 0.02 | 0.00 | 85 | 1019.1 | |
| 20260506071116 | 55 | 0.0 | 0.0 | 0.00 | 0.02 | 0.00 | 85 | 1019.0 | |
| 20260506070116 | 55 | 0.0 | 0.0 | 0.00 | 0.02 | 0.00 | 85 | 1018.9 | |
| 20260506062116 | 56 | 0.0 | 0.0 | 0.00 | 0.02 | 0.02 | 84 | 1018.8 | |
| 20260506061116 | 56 | 0.0 | 0.0 | 0.00 | 0.02 | 0.02 | 84 | 1018.7 | |
| 20260506060117 | 56 | 203 | 1.0 | 1.0 | 0.00 | 0.02 | 0.02 | 84 | 1018.5 |
| 20260506051117 | 57 | 0.0 | 0.0 | 0.00 | 0.02 | 0.02 | 83 | 1018.1 | |
| 20260506050137 | 57 | 0.0 | 1.0 | 0.00 | 0.02 | 0.02 | 83 | 1018.0 | |
| 20260506045117 | 57 | 0.0 | 0.0 | 0.00 | 0.02 | 0.02 | 83 | 1018.0 | |
| 20260506044117 | 58 | 0.0 | 0.0 | 0.00 | 0.02 | 0.02 | 82 | 1017.7 | |
| 20260506043116 | 58 | 0.0 | 0.0 | 0.00 | 0.02 | 0.02 | 82 | 1017.6 | |
| 20260506042116 | 58 | 0.0 | 0.0 | 0.00 | 0.02 | 0.02 | 81 | 1017.5 | |
| 20260506041141 | 58 | 0.0 | 0.0 | 0.00 | 0.02 | 0.02 | 80 | 1017.4 | |
| 20260506040117 | 58 | 0.0 | 0.0 | 0.00 | 0.02 | 0.02 | 80 | 1017.3 | |
| 20260506035117 | 59 | 0.0 | 0.0 | 0.00 | 0.02 | 0.02 | 80 | 1017.2 | |
| 20260506034116 | 59 | 0.0 | 0.0 | 0.00 | 0.02 | 0.02 | 79 | 1017.0 | |
| 20260506033116 | 59 | 0.0 | 0.0 | 0.00 | 0.02 | 0.02 | 79 | 1016.9 | |
| 20260506032116 | 59 | 0.0 | 0.0 | 0.00 | 0.02 | 0.02 | 79 | 1016.6 | |
| 20260506031121 | 60 | 0.0 | 0.0 | 0.00 | 0.02 | 0.02 | 78 | 1016.5 | |
| 20260506030137 | 60 | 0.0 | 0.0 | 0.00 | 0.02 | 0.02 | 78 | 1016.4 | |
| 20260506025117 | 60 | 0.0 | 0.0 | 0.00 | 0.02 | 0.02 | 78 | 1016.5 | |
| 20260506024121 | 60 | 0.0 | 0.0 | 0.00 | 0.02 | 0.02 | 77 | 1016.2 | |
| 20260506023116 | 60 | 0.0 | 0.0 | 0.00 | 0.02 | 0.02 | 77 | 1016.1 | |
| 20260506022116 | 61 | 0.0 | 0.0 | 0.00 | 0.02 | 0.02 | 76 | 1016.1 | |
| 20260506021137 | 61 | 0.0 | 1.0 | 0.00 | 0.03 | 0.02 | 75 | 1016.0 | |
| 20260506020137 | 61 | 0.0 | 1.0 | 0.00 | 0.03 | 0.02 | 75 | 1016.1 | |
| 20260506015120 | 61 | 180 | 1.0 | 1.0 | 0.00 | 0.03 | 0.02 | 75 | 1015.9 |
| 20260506014116 | 62 | 0.0 | 1.0 | 0.00 | 0.03 | 0.02 | 74 | 1015.9 | |
| 20260506013120 | 62 | 0.0 | 1.0 | 0.00 | 0.03 | 0.02 | 75 | 1015.9 | |
| 20260506012115 | 62 | 0.0 | 1.0 | 0.00 | 0.03 | 0.02 | 75 | 1015.8 | |
| 20260506011120 | 62 | 0.0 | 0.0 | 0.00 | 0.03 | 0.02 | 75 | 1015.7 | |
| 20260506010135 | 62 | 0.0 | 0.0 | 0.00 | 0.03 | 0.02 | 75 | 1015.7 | |
| 20260506005136 | 62 | 0.0 | 0.0 | 0.00 | 0.03 | 0.02 | 75 | 1015.8 | |
| 20260506004116 | 62 | 135 | 1.0 | 2.0 | 0.00 | 0.03 | 0.02 | 75 | 1015.7 |
| 20260506003140 | 63 | 0.0 | 0.0 | 0.00 | 0.03 | 0.02 | 75 | 1015.7 | |
| 20260506002116 | 63 | 0.0 | 0.0 | 0.00 | 0.04 | 0.02 | 75 | 1015.7 | |
| 20260506001115 | 63 | 0.0 | 1.0 | 0.00 | 0.04 | 0.02 | 75 | 1015.5 | |
| 20260506000119 | 63 | 0.0 | 1.0 | 0.00 | 0.04 | 0.02 | 75 | 1015.6 | |
| 20260505235136 | 63 | 0.0 | 0.0 | 0.00 | 0.05 | 0.02 | 74 | 1015.6 | |
| 20260505234115 | 63 | 270 | 2.0 | 4.0 | 0.00 | 0.06 | 0.02 | 74 | 1015.6 |
| 20260505233121 | 63 | 68 | 1.0 | 2.0 | 0.00 | 0.06 | 0.02 | 73 | 1015.6 |
| 20260505232119 | 63 | 0.0 | 0.0 | 0.00 | 0.07 | 0.02 | 73 | 1015.7 | |
| 20260505231117 | 63 | 270 | 1.0 | 2.0 | 0.00 | 0.07 | 0.02 | 73 | 1015.7 |
| 20260505230137 | 63 | 0 | 1.0 | 1.0 | 0.00 | 0.08 | 0.02 | 71 | 1015.7 |
| 20260505225217 | 64 | 293 | 1.0 | 2.0 | 0.00 | 0.10 | 0.02 | 71 | 1015.7 |
| 20260505224116 | 64 | 0.0 | 1.0 | 0.00 | 0.11 | 0.02 | 73 | 1015.7 | |
| 20260505223117 | 63 | 0.0 | 1.0 | 0.00 | 0.12 | 0.02 | 73 | 1015.7 | |
| 20260505222115 | 63 | 270 | 1.0 | 2.0 | 0.00 | 0.13 | 0.02 | 73 | 1015.9 |
| 20260505221116 | 63 | 0.0 | 1.0 | 0.00 | 0.15 | 0.02 | 74 | 1015.8 | |
| 20260505220115 | 63 | 0.0 | 1.0 | 0.00 | 0.16 | 0.02 | 74 | 1015.9 | |
| 20260505215116 | 63 | 0.0 | 1.0 | 0.00 | 0.17 | 0.02 | 74 | 1016.0 | |
| 20260505214115 | 63 | 270 | 1.0 | 2.0 | 0.00 | 0.17 | 0.02 | 75 | 1015.9 |
| 20260505213115 | 63 | 0.0 | 0.0 | 0.00 | 0.17 | 0.02 | 76 | 1016.0 | |
| 20260505212120 | 63 | 293 | 1.0 | 1.0 | 0.00 | 0.17 | 0.02 | 74 | 1015.9 |
| 20260505211120 | 64 | 0.0 | 0.0 | 0.00 | 0.17 | 0.02 | 74 | 1016.1 | |
| 20260505210116 | 63 | 0.0 | 0.0 | 0.00 | 0.17 | 0.02 | 76 | 1015.9 | |
| 20260505205117 | 63 | 270 | 2.0 | 2.0 | 0.00 | 0.17 | 0.02 | 74 | 1016.0 |
| 20260505204117 | 63 | 0.0 | 1.0 | 0.00 | 0.17 | 0.02 | 75 | 1016.1 | |
| 20260505203118 | 63 | 270 | 1.0 | 2.0 | 0.00 | 0.17 | 0.02 | 75 | 1016.0 |
| 20260505202117 | 63 | 0.0 | 1.0 | 0.00 | 0.17 | 0.02 | 76 | 1016.0 | |
| 20260505201119 | 62 | 135 | 1.0 | 2.0 | 0.00 | 0.17 | 0.02 | 78 | 1016.2 |
| 20260505200118 | 61 | 0.0 | 0.0 | 0.00 | 0.17 | 0.02 | 78 | 1016.4 | |
| 20260505195118 | 61 | 270 | 2.0 | 2.0 | 0.00 | 0.17 | 0.02 | 77 | 1016.3 |
| 20260505194118 | 61 | 0.0 | 0.0 | 0.00 | 0.17 | 0.02 | 77 | 1016.3 | |
| 20260505193117 | 61 | 0.0 | 1.0 | 0.00 | 0.17 | 0.02 | 80 | 1016.4 | |
| 20260505192117 | 60 | 90 | 2.0 | 2.0 | 0.00 | 0.17 | 0.02 | 80 | 1016.4 |
| 20260505191119 | 59 | 0.0 | 0.0 | 0.00 | 0.17 | 0.02 | 82 | 1016.5 | |
| 20260505190117 | 58 | 0.0 | 1.0 | 0.00 | 0.17 | 0.02 | 84 | 1016.5 | |
| 20260505185118 | 58 | 0.0 | 1.0 | 0.00 | 0.17 | 0.02 | 86 | 1016.4 | |
| 20260505184118 | 58 | 0.0 | 0.0 | 0.00 | 0.17 | 0.02 | 86 | 1016.3 | |
| 20260505183117 | 58 | 0.0 | 0.0 | 0.00 | 0.17 | 0.02 | 86 | 1016.3 | |
| 20260505182121 | 57 | 0.0 | 0.0 | 0.00 | 0.17 | 0.02 | 87 | 1016.3 | |
| 20260505181117 | 57 | 0.0 | 1.0 | 0.00 | 0.17 | 0.02 | 88 | 1016.3 | |
| 20260505180117 | 57 | 113 | 1.0 | 1.0 | 0.00 | 0.17 | 0.02 | 88 | 1016.2 |
| 20260505175117 | 56 | 135 | 1.0 | 1.0 | 0.00 | 0.17 | 0.02 | 89 | 1016.2 |
| 20260505174117 | 56 | 0.0 | 0.0 | 0.00 | 0.17 | 0.02 | 91 | 1016.1 | |
| 20260505173117 | 55 | 113 | 1.0 | 1.0 | 0.00 | 0.17 | 0.02 | 91 | 1016.0 |
| 20260505172117 | 55 | 0.0 | 1.0 | 0.00 | 0.17 | 0.02 | 92 | 1015.9 | |
| 20260505171138 | 55 | 0.0 | 1.0 | 0.00 | 0.17 | 0.02 | 92 | 1016.0 | |
| 20260505170137 | 55 | 0.0 | 1.0 | 0.00 | 0.17 | 0.02 | 93 | 1016.0 | |
| 20260505165117 | 54 | 158 | 1.0 | 2.0 | 0.00 | 0.17 | 0.02 | 93 | 1016.1 |
| 20260505164121 | 54 | 0.0 | 1.0 | 0.00 | 0.17 | 0.02 | 93 | 1016.0 | |
| 20260505163117 | 54 | 0.0 | 0.0 | 0.00 | 0.17 | 0.02 | 93 | 1016.0 | |
| 20260505162146 | 54 | 0.0 | 1.0 | 0.00 | 0.17 | 0.02 | 92 | 1015.9 | |
| 20260505161117 | 54 | 0.0 | 0.0 | 0.00 | 0.17 | 0.02 | 93 | 1015.8 | |
| 20260505160137 | 53 | 0.0 | 0.0 | 0.00 | 0.17 | 0.02 | 93 | 1015.9 | |
| 20260505153117 | 52 | 0.0 | 0.0 | 0.00 | 0.17 | 0.02 | 93 | 1015.8 | |
| 20260505152137 | 52 | 0.0 | 0.0 | 0.00 | 0.17 | 0.02 | 92 | 1015.8 | |
| 20260505151118 | 52 | 0.0 | 0.0 | 0.00 | 0.17 | 0.02 | 92 | 1015.8 | |
| 20260505150116 | 52 | 0.0 | 0.0 | 0.00 | 0.17 | 0.02 | 92 | 1015.5 | |
| 20260505140117 | 51 | 0.0 | 0.0 | 0.00 | 0.17 | 0.02 | 92 | 1015.3 | |
| 20260505130121 | 51 | 0.0 | 0.0 | 0.00 | 0.17 | 0.02 | 92 | 1014.7 | |
| 20260505124117 | 52 | 0.0 | 0.0 | 0.00 | 0.17 | 0.02 | 92 | 1014.8 | |
| 20260505123136 | 52 | 0.0 | 0.0 | 0.00 | 0.17 | 0.02 | 92 | 1014.8 | |
| 20260505122116 | 52 | 0.0 | 0.0 | 0.00 | 0.17 | 0.02 | 92 | 1014.8 | |
| 20260505121136 | 52 | 0.0 | 0.0 | 0.00 | 0.17 | 0.02 | 92 | 1014.8 | |
| 20260505120116 | 52 | 0.0 | 0.0 | 0.00 | 0.17 | 0.02 | 92 | 1014.8 | |
| 20260505115116 | 52 | 0.0 | 0.0 | 0.00 | 0.17 | 0.02 | 92 | 1014.7 | |
| 20260505114116 | 52 | 0.0 | 0.0 | 0.00 | 0.17 | 0.02 | 92 | 1014.9 | |
| 20260505113116 | 52 | 0.0 | 0.0 | 0.00 | 0.17 | 0.02 | 92 | 1015.0 | |
| 20260505112116 | 52 | 0.0 | 0.0 | 0.00 | 0.17 | 0.02 | 92 | 1014.9 | |
| 20260505111116 | 52 | 0.0 | 0.0 | 0.00 | 0.17 | 0.02 | 92 | 1015.0 | |
| 20260505110140 | 52 | 0.0 | 0.0 | 0.00 | 0.17 | 0.02 | 92 | 1015.0 | |
| 20260505102116 | 52 | 0.0 | 0.0 | 0.00 | 0.17 | 0.02 | 92 | 1015.0 | |
| 20260505101116 | 52 | 0.0 | 0.0 | 0.00 | 0.17 | 0.02 | 92 | 1015.0 | |
| 20260505100116 | 52 | 0.0 | 0.0 | 0.00 | 0.17 | 0.02 | 92 | 1015.0 | |
| 20260505095116 | 52 | 0.0 | 0.0 | 0.00 | 0.17 | 0.02 | 92 | 1014.7 | |
| 20260505094116 | 52 | 0.0 | 0.0 | 0.00 | 0.17 | 0.02 | 92 | 1014.8 | |
| 20260505093136 | 52 | 0.0 | 0.0 | 0.00 | 0.17 | 0.02 | 92 | 1014.8 | |
| 20260505092120 | 52 | 0.0 | 0.0 | 0.02 | 0.17 | 0.02 | 92 | 1015.1 |